Regional Weather Roundup
Issued by NWS New Orleans/Baton Rouge, LA

Home | Current Version | Previous Version | Text Only | Print | Product List | Glossary Off
Versions: 1 2 3 4 5 6 7 8 9 10 11 12 13 14 15 16 17 18 19 20 21 22 23 24 25 26 27 28 29 30 31 32 33 34 35 36 37 38 39 40 41 42 43 44 45 46 47 48 49 50

169
ASUS44 KLIX 290707
RWRLIX
NEW ORLEANS REGIONAL WEATHER ROUNDUP
NATIONAL WEATHER SERVICE NEW ORLEANS LA
200 AM CDT SUN MAR 29 2015

NOTE: "FAIR" INDICATES FEW OR NO CLOUDS BELOW 12,000 FEET WITH NO
      SIGNIFICANT WEATHER AND/OR OBSTRUCTIONS TO VISIBILITY.
      SKY/WX - SKY CONDITION AND SIGNIFICANT WEATHER.
      TMP - AIR TEMPERATURE.     DP    - DEWPOINT TEMPERATURE.
      RH  - RELATIVE HUMIDITY.   PRES  - PRESSURE.
      HI  - HEAT INDEX.          WCI   - WIND CHILL INDEX.

*  THESE STATIONS ARE NOT NWS OR FAA STATIONS AND ARE NOT UNDER
   NWS QUALITY CONTROL.

LAZ038-040-048-061>063-065>067-069-290800-
SOUTHEAST LOUISIANA

CITY           SKY/WX    TMP DP  RH WIND       PRES   REMARKS
N.O. AUDUBON     N/A     59  56  91 MISG        N/A
N.O. INTL ARPT CLEAR     57  50  77 SE7       30.23S
N.O. LAKEFRONT CLEAR     60  52  74 SE8       30.24S
SLIDELL        CLEAR     50  46  86 NE6       30.25R
BATON ROUGE    CLEAR     53  50  89 E5        30.21F
BOOTHVILLE     CLEAR     57  53  86 E6        30.24F
BELLE CHASSE   CLEAR     56  51  84 SE5       30.23S
BOGALUSA*        N/A     51  37  59 E3        30.28F
GALLIANO*      SUNNY     61  57  88 CALM      30.23S
NEW ROADS*       N/A     55  51  86 E3        30.21S
GONZALES*        N/A     54  54 100 CALM      30.22S
HAMMOND*       CLEAR     54  48  82 E6        30.25S
HOUMA*         CLEAR     53  53  99 CALM      30.21F FOG
PORT FOURCHON* SUNNY     66  59  77 SE9       30.25S

$$

MSZ070-080>082-290800-
SOUTHERN MISSISSIPPI

CITY           SKY/WX    TMP DP  RH WIND       PRES   REMARKS
MCCOMB         CLEAR     48  37  65 E7        30.25S
GULFPORT       CLEAR     50  39  66 NE9       30.27S
BILOXI         CLEAR     49  37  62 E13       30.27F
PASCAGOULA     CLEAR     46  36  68 NE6       30.29F

$$

COASTAL OBSERVATIONS
LAKE AND NEARSHORE STATIONS

STATION/POSITION TIME  TEMP    WIND        PRES    WAVE
                       AIR SEA DIR/SP/G            HT/PER
                 (UTC) (F)     (DEG/KT/KT) (MB)    (FT/S)

OFFSHORE STATIONS

STATION/POSITION TIME  TEMP    WIND        PRES    WAVE
                       AIR SEA DIR/SP/G            HT/PER
                 (UTC) (F)     (DEG/KT/KT) (MB)    (FT/S)
64 S DAUPHIN ISL 0650   63 71  110/  6/ 10 1024.9    1/ 4

$$




USA.gov is the U.S. government's official web portal to all federal, state and local government web resources and services.